Regional Weather Roundup
Issued by NWS

Home | Current Version | Previous Version | Text Only | Print | Product List | Glossary On
Versions: 1 2 3 4 5 6 7 8 9 10 11 12 13 14 15 16 17 18 19 20 21 22 23 24 25 26 27
000
ASUS45 KPSR 210510
RWRAZ

ARIZONA HOURLY REGIONAL WEATHER ROUNDUP
NATIONAL WEATHER SERVICE PHOENIX AZ
1000 PM MST FRI JAN 20 2017

NOTE: FAIR INDICATES FEW OR NO CLOUDS BELOW 12,000 FEET WITH NO
SIGNIFICANT WEATHER AND/OR OBSTRUCTIONS TO VISIBILITY.

AZZ001>003-036-210600-
NORTHWEST ARIZONA

CITY           SKY/WX    TMP DP  RH WIND       PRES   REMARKS
BULLHEAD CITY  CLOUDY    54  46  76 S23G32    29.40F
KINGMAN        LGT RAIN  42  39  89 SW23G36   29.39S
$$

AZZ004>008-015-016-018-210600-
NORTH CENTRAL ARIZONA

CITY           SKY/WX    TMP DP  RH WIND       PRES   REMARKS
GRAND CANYON   LGT SNOW  30  30 100 S10       29.39F FOG     WCI  21
WILLIAMS       LGT SNOW  30  28  93 S14       29.40F VSB 3/4 WCI  20
PRESCOTT       LGT SNOW  37  35  92 S18G25    29.43F FOG     WCI  27
FLAGSTAFF      HVY SNOW  28  27  96 SW18G25   29.42F VSB 1/4 WCI  15
PAGE           CLOUDY    39  31  72 SE6       29.39F WCI  35
$$

AZZ009>014-017-210600-
NORTHEAST ARIZONA

CITY           SKY/WX    TMP DP  RH WIND       PRES   REMARKS
WINSLOW        CLOUDY    40  33  76 SE13      29.47F WCI  32
SAINT JOHNS    CLOUDY    36  32  85 N6        29.49F WCI  31
SHOW LOW       LGT SNOW  32  28  86 S23       29.53R VSB 1   WCI  19
$$

AZZ023-210600-
GREATER PHOENIX AREA

CITY           SKY/WX    TMP DP  RH WIND       PRES   REMARKS
PHOENIX        RAIN      52  50  93 CALM      29.54S FOG
BUCKEYE        CLOUDY    52  52 100 S9G17     29.53S
LUKE AFB       MOCLDY    52 N/A N/A S12       29.51F
DEER VALLEY    CLOUDY    50  50 100 S7        29.52F
SCOTTSDALE     LGT RAIN  51  49  92 S6        29.57F
MESA-GATEWAY   LGT RAIN  52  48  87 S9        29.59R
$$

AZZ027-028-210600-
SOUTHWEST MARICOPA COUNTY AND PINAL COUNTY

CITY           SKY/WX    TMP DP  RH WIND       PRES   REMARKS
CASA GRANDE    LGT RAIN  53  47  79 S20       29.57R
$$

AZZ503-504-507>509-210600-
SOUTHEAST ARIZONA

CITY           SKY/WX    TMP DP  RH WIND       PRES   REMARKS
TUCSON         CLOUDY    52  42  69 S28G38    29.63F
DAVIS-MONTHAN  MOCLDY    51  40  68 S13       29.63F
NOGALES        LGT RAIN  44  40  85 S13       29.68F
SIERRA VISTA   LGT RAIN  43  37  78 SW17G29   29.68F
DOUGLAS        CLOUDY    45  39  79 S8        29.72S
SAFFORD        CLOUDY    46  42  86 SE16G23   29.59F
$$

AZZ020-021-025-026-031-210600-
SOUTHWEST ARIZONA

CITY           SKY/WX    TMP DP  RH WIND       PRES   REMARKS
YUMA           MOCLDY    57  49  74 W15       29.55R
$$

CAZ031-033-041-043-047-048-061-210600-
SOUTHERN CALIFORNIA

CITY           SKY/WX    TMP DP  RH WIND       PRES   REMARKS
DOWNTOWN L.A.  PTCLDY    54  45  71 W5        29.54R
L.A. AIRPORT   MOCLDY    55  46  71 W26G36    29.55R
SAN DIEGO      MOCLDY    57  48  72 W20       29.63R
BURBANK        MOCLDY    51  42  71 W6        29.54R
ONTARIO        MOCLDY    49  46  90 SW6       29.53R
PALM SPRINGS   CLOUDY    51  50  96 E7        29.49S
EL CENTRO NAS  PTCLDY    51  45  79 SE6       29.55R
IMPERIAL       PTCLDY    51  47  86 SW7       29.53R
BLYTHE         CLOUDY    52  51  97 S14       29.47F
NEEDLES        CLOUDY    54  45  71 VRB7      29.42S
$$

NVZ020-UTZ003-210600-
SOUTHERN NEVADA-UTAH

CITY           SKY/WX    TMP DP  RH WIND       PRES   REMARKS
LAS VEGAS      MOCLDY    49  36  61 S12       29.30R
SALT LAKE CITY CLOUDY    34  31  88 S14       29.32F WCI  25
$$

NMZ009-TXZ055-210600-
NEW MEXICO-WEST TEXAS

CITY           SKY/WX    TMP DP  RH WIND       PRES   REMARKS
ALBUQUERQUE    CLOUDY    37  35  92 E7        29.62F WCI  32
EL PASO        LGT RAIN  51  35  54 SW14      29.71R
$$


........................KEY........................
SKY/WX - SKY CONDITION/WEATHER
TMP    - TEMPERATURE IN FAHRENHEIT
DP     - DEW POINT IN FAHRENHEIT
RH     - RELATIVE HUMIDITY IN PERCENT
WIND   - DIRECTION AND SPEED IN MILES PER HOUR (MPH)
VRB    - VARIABLE WIND DIRECTION
PRES   - MEAN SEA LEVEL PRESSURE IN INCHES OF MERCURY
         F - FALLING PRESSURE   R - RISING PRESSURE
         S - STEADY PRESSURE
VSB    - VISIBILITY IN MILES
HX     - HEAT INDEX IN FAHRENHEIT
WCI    - WIND CHILL INDEX IN FAHRENHEIT
TC     - TEMPERATURE IN CELSIUS WHICH IS ALSO KNOWN AS
         TEMPERATURE IN CENTIGRADE
AFB    - AIR FORCE BASE
         LUKE AFB IS LUKE AIR FORCE BASE
         DAVIS-MONTHAN IS DAVIS-MONTHAN AIR FORCE BASE
NAS    - NAVAL AIR STATION
         EL CENTRO NAS IS EL CENTRO NAVAL AIR STATION
N/A    - NOT AVAILABLE





USA.gov is the U.S. government's official web portal to all federal, state and local government web resources and services.